SV1DAY-13 Weather Reports


time (UTC)temp
F
wind
direction
speed
knots
gust
knots
rain 1hr
in
rain 24hr
in
rain mn
in
humidity
%
barometer
mb
20260507000037 61 241 2.6 4.3 0.00 0.00 0.00 76 1015.7
20260506234551 61 240 2.6 4.3 0.00 0.00 0.00 75 1015.6
20260506233057 61 236 2.6 6.1 0.00 0.00 0.00 74 1015.8
20260506231553 60 249 3.5 6.1 0.00 0.00 0.00 74 1015.7
20260506230040 60 249 6.1 7.8 0.00 0.00 0.00 75 1016.0
20260506224543 60 250 6.1 7.8 0.00 0.00 0.00 76 1016.2
20260506223040 60 260 7.0 11.3 0.00 0.00 0.00 77 1016.3
20260506221551 61 253 7.8 10.4 0.00 0.00 0.00 77 1016.4
20260506220053 61 254 7.8 10.4 0.00 0.00 0.00 77 1016.3
20260506214549 62 247 7.0 9.6 0.00 0.00 0.00 76 1016.3
20260506213045 62 252 6.1 9.6 0.00 0.00 0.00 76 1016.4
20260506211559 61 243 6.1 8.7 0.00 0.00 0.00 75 1016.5
20260506210054 61 251 4.3 7.8 0.00 0.00 0.00 75 1016.4
20260506204551 61 244 3.5 6.1 0.00 0.00 0.00 74 1016.5
20260506203046 61 246 2.6 4.3 0.00 0.00 0.00 72 1016.6
20260506201556 60 250 4.3 7.8 0.00 0.00 0.00 69 1016.5
20260506200040 59 246 3.5 6.1 0.00 0.00 0.00 65 1016.4
20260506194540 61 250 4.3 7.8 0.00 0.00 0.00 64 1016.3
20260506193057 64 252 4.3 7.0 0.00 0.00 0.00 61 1016.2
20260506191549 64 249 3.5 6.1 0.00 0.00 0.00 53 1016.1
20260506190044 64 249 2.6 3.5 0.00 0.00 0.00 43 1015.9
20260506184550 65 249 2.6 4.3 0.00 0.00 0.00 39 1015.8
20260506183041 65 249 1.7 3.5 0.00 0.00 0.00 39 1015.4
20260506181558 65 249 1.7 3.5 0.00 0.00 0.00 39 1015.4
20260506180053 65 249 2.6 4.3 0.00 0.00 0.00 40 1015.2
20260506174553 65 249 1.7 3.5 0.00 0.00 0.00 39 1015.2
20260506173122 65 249 0.9 4.3 0.00 0.00 0.00 40 1015.1
20260506171543 65 249 2.6 3.5 0.00 0.00 0.00 40 1014.8
20260506170041 66 249 1.7 3.5 0.00 0.00 0.00 41 1015.0
20260506164606 67 250 1.7 3.5 0.00 0.00 0.00 39 1015.0
20260506163104 67 250 1.7 5.2 0.00 0.00 0.00 38 1015.1
20260506161609 68 258 1.7 4.3 0.00 0.00 0.00 43 1015.1
20260506160046 68 229 2.6 5.2 0.00 0.00 0.00 44 1015.1
20260506154550 68 217 2.6 5.2 0.00 0.00 0.00 44 1015.2
20260506153047 68 219 3.5 5.2 0.00 0.00 0.00 44 1015.3
20260506151557 68 211 2.6 5.2 0.00 0.00 0.00 44 1015.3
20260506150051 67 244 2.6 6.1 0.00 0.00 0.00 48 1015.4
20260506144554 66 223 2.6 5.2 0.00 0.00 0.00 52 1015.6
20260506143050 67 272 2.6 7.0 0.00 0.00 0.00 49 1015.6
20260506141542 66 244 2.6 6.1 0.00 0.00 0.00 51 1015.7
20260506140042 67 215 2.6 6.1 0.00 0.00 0.00 54 1015.9
20260506134540 66 221 2.6 6.1 0.00 0.00 0.00 58 1015.8
20260506133055 66 242 2.6 6.1 0.00 0.00 0.00 57 1015.8
20260506131558 66 221 3.5 7.8 0.00 0.00 0.00 60 1015.7
20260506130100 66 221 1.7 5.2 0.00 0.00 0.00 58 1015.6
20260506124553 66 225 0.9 4.3 0.00 0.00 0.00 55 1015.7
20260506123044 65 189 1.7 5.2 0.00 0.00 0.00 60 1015.9
20260506121556 65 184 1.7 5.2 0.00 0.00 0.00 62 1016.1
20260506120052 65 193 1.7 5.2 0.00 0.00 0.00 61 1016.3
20260506114554 64 182 2.6 4.3 0.00 0.00 0.00 63 1016.3
20260506113054 65 138 0.9 7.0 0.00 0.00 0.00 62 1016.3
20260506111542 65 149 3.5 6.1 0.00 0.00 0.00 60 1016.4
20260506110040 65 173 3.5 7.8 0.00 0.00 0.00 61 1016.4
20260506104559 66 136 3.5 7.0 0.00 0.00 0.00 54 1016.3
20260506103058 65 123 4.3 7.8 0.00 0.00 0.00 53 1016.2
20260506101555 66 129 6.1 8.7 0.00 0.00 0.00 60 1016.3
20260506100101 66 107 6.1 8.7 0.00 0.00 0.00 54 1016.3
20260506094541 66 101 6.1 9.6 0.00 0.00 0.00 54 1016.3
20260506093056 66 121 5.2 7.8 0.00 0.00 0.00 53 1016.3
20260506091559 66 89 4.3 8.7 0.00 0.00 0.00 54 1016.3
20260506090047 65 109 6.1 10.4 0.00 0.00 0.00 59 1016.3
20260506084607 65 107 6.1 8.7 0.00 0.00 0.00 60 1016.3
20260506083046 66 106 5.2 8.7 0.00 0.00 0.00 55 1016.3
20260506081601 65 108 6.1 8.7 0.00 0.00 0.00 55 1016.3
20260506073052 65 94 5.2 8.7 0.00 0.00 0.00 53 1015.9
20260506071546 65 109 4.3 7.0 0.00 0.00 0.00 55 1015.7
20260506061549 63 99 4.3 7.8 0.00 0.00 0.00 60 1015.7
20260506044655 63 49 1.7 4.3 0.00 0.00 0.00 47 1014.9
20260506043057 63 69 2.6 5.2 0.00 0.00 0.00 47 1014.9
20260506041558 62 69 1.7 4.3 0.00 0.00 0.00 47 1014.7
20260506040014 61 81 2.6 4.3 0.00 0.00 0.00 47 1014.7
20260506034614 61 65 1.7 3.5 0.00 0.00 0.00 48 1014.6
20260506033103 61 78 3.5 5.2 0.00 0.00 0.00 47 1014.5
20260506031549 60 65 0.9 3.5 0.00 0.00 0.00 50 1014.5
20260506030041 60 251 0.0 0.0 0.00 0.00 0.00 55 1014.5
20260506024546 59 251 0.0 0.0 0.00 0.00 0.00 55 1014.3
20260506023101 55 251 0.0 0.0 0.00 0.00 0.00 64 1014.3
20260506021553 57 251 0.0 2.6 0.00 0.00 0.00 75 1014.4
20260506020053 58 248 4.3 6.1 0.00 0.00 0.00 77 1014.3
20260506014548 58 242 4.3 6.1 0.00 0.00 0.00 77 1014.4
20260506013043 59 250 3.5 9.6 0.00 0.00 0.00 76 1014.4
20260506011541 58 247 6.1 9.6 0.00 0.00 0.00 76 1014.2
20260506010040 59 244 5.2 7.0 0.00 0.00 0.00 75 1014.3
20260506004625 58 251 4.3 6.1 0.00 0.00 0.00 75 1014.2
20260506003110 59 242 3.5 4.3 0.00 0.00 0.00 74 1014.4
20260506001555 58 244 2.6 6.1 0.00 0.00 0.00 72 1014.3